This demonstration page uses our WeatherBlox Daily Observations layout. Learn more.

Left ArrowRight Arrow

39.29038, -76.61219

Hourly Observations for August 14, 2020

Temp ( °F °C ) Dew Point ( °F °C ) Humidity (%) Winds ( mph kmh ) Pressure ( in mb ) Visibility ( mi km ) Precip ( " mm )
12:54 am 00:54 Mostly Cloudy 76 24.4 72 22.2 88 88 NE 5 7 30.02 1017 10 16 0.00 0.00
1:54 am 01:54 Mostly Cloudy with Light Rain 76 24.4 73 22.8 91 91 N 5 7 30.01 1016 10 16 0.00 0.00
2:18 am 02:18 Cloudy with Light Rain 75 23.9 72 22.2 90 90 N 6 9 29.99 1016 2 3 0.14 3.56
2:40 am 02:40 Cloudy with Rain 75 23.9 73 22.8 94 94 NNE 7 11 29.98 1015 2 2 0.27 6.86
2:54 am 02:54 Cloudy with Light Rain 75 23.9 73 22.8 94 94 NNE 6 9 29.98 1015 3 5 0.37 9.40
3:21 am 03:21 Cloudy with Light Rain 75 23.9 72 22.2 90 90 NNE 8 13 29.97 1015 3 4 0.10 2.54
3:39 am 03:39 Cloudy with Light Rain 75 23.9 72 22.2 90 90 NNE 7 11 29.97 1015 4 6 0.11 2.79
3:54 am 03:54 Cloudy 75 23.9 72 22.2 90 90 NNE 8 13 29.98 1015 7 11 0.11 2.79
4:16 am 04:16 Cloudy 75 23.9 72 22.2 90 90 N 6 9 29.97 1015 7 11 0.00 0.00
4:54 am 04:54 Cloudy 75 23.9 71 21.7 88 88 N 7 11 29.97 1015 7 11 0.00 0.00
5:40 am 05:40 Mostly Cloudy 75 23.9 71 21.7 88 88 NNE 6 9 29.97 1015 9 14 0.00 0.00
5:54 am 05:54 Mostly Cloudy 75 23.9 71 21.7 88 88 NNE 6 9 29.98 1015 9 14 0.00 0.00
6:54 am 06:54 Cloudy with Mist and Fog 75 23.9 71 21.7 88 88 NE 9 15 29.98 1015 3 5 0.00 0.00
7:09 am 07:09 Cloudy with Mist and Fog 75 23.9 71 21.7 88 88 NE 9 15 29.98 1015 5 8 0.00 0.00
7:54 am 07:54 Mostly Cloudy with Haze 76 24.4 71 21.7 85 85 N 9 15 29.99 1016 5 8 0.00 0.00
8:54 am 08:54 Cloudy with Haze 77 25 71 21.7 82 82 NNE 13 20 30.00 1016 6 10 0.00 0.00
9:54 am 09:54 Mostly Cloudy 78 25.6 71 21.7 79 79 NNE 12 19 29.99 1016 7 11 0.00 0.00
10:54 am 10:54 Mostly Cloudy 81 27.2 71 21.7 72 72 NE 10 17 29.99 1016 10 16 0.00 0.00
11:54 am 11:54 Mostly Cloudy 82 27.8 71 21.7 69 69 ENE 6 9 29.98 1015 10 16 0.00 0.00
12:07 pm 12:07 Mostly Cloudy 84 28.9 71 21.7 65 65 NE 7 11 29.97 1015 10 16 0.00 0.00
12:54 pm 12:54 Mostly Cloudy 84 28.9 71 21.7 65 65 NNE 7 11 29.96 1015 10 16 0.00 0.00
1:54 pm 13:54 Mostly Cloudy 88 31.1 71 21.7 57 57 NE 9 15 29.94 1014 10 16 0.00 0.00
2:54 pm 14:54 Mostly Cloudy 85 29.4 69 20.6 59 59 ENE 12 19 29.93 1014 10 16 0.00 0.00
3:54 pm 15:54 Mostly Cloudy with Light Rain 79 26.1 73 22.8 82 82 Calm 29.93 1014 9 14 0.00 0.00
4:54 pm 16:54 Cloudy 83 28.3 71 21.7 67 67 E 6 9 29.93 1014 10 16 0.01 0.25
5:54 pm 17:54 Cloudy 82 27.8 73 22.8 74 74 ESE 6 9 29.93 1013 10 16 0.00 0.00
6:54 pm 18:54 Cloudy 78 25.6 71 21.7 79 79 ESE 9 15 29.94 1014 10 16 0.00 0.00
7:36 pm 19:36 Cloudy with Light Rain 76 24.4 71 21.7 85 85 N 3 6 29.96 1015 9 14 0.00 0.00
7:54 pm 19:54 Cloudy 76 24.4 72 22.2 88 88 Calm 29.96 1015 10 16 0.00 0.00
8:54 pm 20:54 Cloudy 74 23.3 71 21.7 91 91 Calm 29.97 1015 10 16 0.00 0.00
9:54 pm 21:54 Cloudy 74 23.3 71 21.7 91 91 WNW 3 6 29.98 1015 10 16 0.00 0.00
10:54 pm 22:54 Mostly Cloudy 74 23.3 71 21.7 91 91 NW 3 6 29.97 1015 10 16 0.00 0.00
11:54 pm 23:54 Mostly Cloudy 73 22.8 70 21.1 90 90 Calm 29.97 1015 10 16 0.00 0.00

Powered by AerisWeather